Flag for Poland Weather past 2 weeks in Lublin, Poland

Now
55 °F

Fog.


Feels Like: 55 °F
Forecast: 52 / 59 °F
Wind: 1 mph from Southwest

Location: Lublin Radawiec

Current Time: Sep 21, 2014 at 6:24:02 AM

Latest Report: Sep 21, 2014 at 5:00 AM


Visibility: 0 mi

Pressure: 29.89 "Hg

Humidity: 99%

Dew point: 55 °F

Location of LublinLocation

Historic Weather in Lublin — Graph

°F

Lublin temperature yesterday

Maximum temperature yesterday: 63 °F (at 2:00 PM)
Minimum temperature yesterday: 52 °F (at 5:00 AM)
Average temperature yesterday: 56 °F

Past Weeks' High & Low Weather Summary

 TemperatureHumidityPressure
High77 °F (Sep 12, 3:00 PM)99% (Sep 21, 2:00 AM)30.27 "Hg (Sep 21, 2:00 AM)
Low46 °F (Sep 17, 6:00 AM)42% (Sep 7, 4:00 PM)29.89 "Hg (Sep 21, 5:00 AM)
Average61 °F75%30.08 "Hg
* Reported Sep 6 5:00 AM — Sep 21 5:00 AM, Lublin, Weather by CustomWeather, © 2014

Note: Actual official high and low records may vary slightly from our data, if they occured in-between our weather recording intervals... More about our weather records

Advertising

Lublin weather history for previous 24 hours

 ConditionsComfort  
Time TempWeatherWind HumidityBarometerVisibility
5:00 AM
Sep 21
55 °FFog.1 mph99%29.89 "Hg0 mi
4:00 AM56 °FFog.1 mph99%29.90 "Hg0 mi
3:00 AM56 °FFog.2 mph99%29.91 "Hg0 mi
2:00 AM56 °FFog.1 mph99%29.92 "Hg0 mi
1:00 AM56 °FFog.1 mph98%29.93 "Hg1 mi
12:00 AM56 °FFog.1 mph98%29.93 "Hg1 mi
11:00 PM
Sep 20
57 °FFog.1 mph97%29.94 "Hg1 mi
10:00 PM57 °FFog.No wind96%29.94 "Hg2 mi
9:00 PM57 °FFog.1 mph95%29.95 "Hg2 mi
8:00 PM58 °FFog.No wind93%29.95 "Hg2 mi
7:00 PM58 °FFog.No wind91%29.94 "Hg2 mi
3:00 PM62 °FFog.2 mph83%29.96 "Hg5 mi
2:00 PM63 °FFog.1 mph84%29.97 "Hg5 mi
1:00 PM59 °FFog.1 mph91%29.98 "Hg4 mi
12:00 PM58 °FOvercast.1 mph89%29.98 "Hg4 mi
11:00 AM58 °FLight rain. Overcast.2 mph85%29.99 "Hg4 mi
10:00 AM58 °FLight rain. Overcast.1 mph84%29.98 "Hg6 mi
9:00 AM57 °FLight rain. Overcast.1 mph84%29.99 "Hg5 mi
8:00 AM55 °FFog.2 mph85%29.99 "Hg5 mi
7:00 AM54 °FFog.2 mph86%30.00 "Hg6 mi
6:00 AM53 °FFog.1 mph88%30.01 "Hg5 mi
Weather by CustomWeather, © 2014

See weather overviewHow to use our weather pages